This demonstration page uses our WeatherBlox Daily Observations layout. Learn more.

Left ArrowRight Arrow

Hourly Observations for June 18, 2016

Temp ( °F °C ) Dew Point ( °F °C ) Humidity (%) Winds ( mph kmh ) Pressure ( in mb ) Visibility ( mi km ) Precip ( " mm )
12:53 am 00:53 Cloudy with Light Rain 57 13.9 54 12.2 90 90 SE 6 9 30.06 1018 9 14 0.13 3.30
1:53 am 01:53 Cloudy with Light Rain 56 13.3 53 11.7 90 90 Calm 30.07 1018 7 11 0.10 2.54
2:05 am 02:05 Cloudy with Rain 56 13.3 54 12.2 93 93 Calm 30.09 1019 4 6 0.04 1.02
2:23 am 02:23 Cloudy with Light Rain 56 13.3 54 12.2 93 93 SSW 3 6 30.09 1019 7 11 0.08 2.03
2:53 am 02:53 Cloudy with Light Rain 56 13.3 53 11.7 90 90 Calm 30.07 1018 8 13 0.14 3.56
3:14 am 03:14 Cloudy with Rain 55 13 54 12 94 94 Calm 30.09 1019 7 11 0.00 0.00
3:25 am 03:25 Cloudy with Rain 56 13.3 54 12.2 93 93 Calm 30.09 1019 4 6 0.07 1.78
3:53 am 03:53 Cloudy with Light Rain 56 13.3 54 12.2 93 93 E 7 11 30.07 1018 10 16 0.11 2.79
4:26 am 04:26 Cloudy 55 13 54 12 94 94 VRB 3 6 30.09 1019 10 16 0.00 0.00
4:53 am 04:53 Cloudy with Light Rain 56 13.3 54 12.2 93 93 S 3 6 30.10 1019 10 16 0.00 0.03
5:11 am 05:11 Cloudy 56 13.3 54 12.2 93 93 SW 3 6 30.12 1020 10 16 0.00 0.03
5:53 am 05:53 Mostly Cloudy 56 13.3 53 11.7 90 90 Calm 30.14 1021 10 16 0.00 0.03
6:01 am 06:01 Mostly Sunny 55 12.8 53 11.7 93 93 Calm 30.15 1021 10 16 0.00 0.00
6:53 am 06:53 Sunny 56 13.3 54 12.2 93 93 Calm 30.15 1021 10 16 0.00 0.00
7:19 am 07:19 Partly Cloudy 57 13.9 55 12.8 93 93 WNW 3 6 30.18 1022 10 16 0.00 0.00
7:48 am 07:48 Mostly Cloudy 57 14 55 13 94 94 NW 3 6 30.18 1022 10 16 0.00 0.00
7:53 am 07:53 Mostly Cloudy 58 14.4 55 12.8 90 90 WNW 3 6 30.18 1022 10 16 0.00 0.00
8:28 am 08:28 Partly Cloudy 59 15 54 12 82 82 Calm 30.21 1023 10 16 0.00 0.00
8:53 am 08:53 Sunny 60 15.6 54 12.2 80 80 E 3 6 30.20 1023 10 16 0.00 0.00
9:18 am 09:18 Mostly Cloudy 63 17 54 12 73 73 VRB 3 6 30.18 1022 10 16 0.00 0.00
9:45 am 09:45 Partly Cloudy 64 17.8 53 11.7 68 68 VRB 3 6 30.18 1022 10 16 0.00 0.00
9:53 am 09:53 Partly Cloudy 65 18.3 53 11.7 66 66 NE 6 9 30.22 1023 10 16 0.00 0.00
10:53 am 10:53 Partly Cloudy 65 18.3 50 10 59 59 VRB 3 6 30.22 1023 10 16 0.00 0.00
11:53 am 11:53 Mostly Sunny 69 20.6 48 8.9 47 47 N 5 7 30.21 1023 10 16 0.00 0.00
12:53 pm 12:53 Sunny 71 21.7 43 6.1 36 36 VRB 6 9 30.20 1023 10 16 0.00 0.00
1:53 pm 13:53 Sunny 73 22.8 43 6.1 34 34 NW 8 13 30.19 1022 10 16 0.00 0.00
2:53 pm 14:53 Sunny 75 23.9 43 6.1 32 32 N 10 17 30.17 1022 10 16 0.00 0.00
3:53 pm 15:53 Sunny 76 24.4 42 5.6 30 30 NNW 5 7 30.15 1021 10 16 0.00 0.00
4:53 pm 16:53 Sunny 78 25.6 41 5 27 27 VRB 5 7 30.14 1021 10 16 0.00 0.00
5:53 pm 17:53 Sunny 79 26.1 43 6.1 28 28 N 7 11 30.12 1020 10 16 0.00 0.00
6:53 pm 18:53 Sunny 79 26.1 42 5.6 27 27 N 10 17 30.10 1019 10 16 0.00 0.00
7:53 pm 19:53 Sunny 77 25 42 5.6 29 29 NNE 7 11 30.09 1019 10 16 0.00 0.00
8:53 pm 20:53 Clear 70 21.1 48 8.9 46 46 NW 5 7 30.08 1019 10 16 0.00 0.00
9:53 pm 21:53 Clear 67 19.4 51 10.6 57 57 WNW 7 11 30.09 1019 10 16 0.00 0.00
10:53 pm 22:53 Clear 65 18.3 51 10.6 61 61 NNW 3 6 30.11 1020 10 16 0.00 0.00
11:53 pm 23:53 Clear 64 17.8 51 10.6 63 63 NW 5 7 30.11 1020 10 16 0.00 0.00

Powered by AerisWeather